Time,TemperatureF,DewpointF,PressureIn,WindDirection,WindDirectionDegrees,WindSpeedMPH,WindSpeedGustMPH,Humidity,HourlyPrecipIn,Conditions,Clouds,dailyrainin,SolarRadiationWatts/m^2,SoftwareType,DateUTC
2013-10-19 00:00:00,48.0,39.8,29.87,SSE,167,0.0,0.0,73,0.00,,,0.00,0,Wunderground v.1.15,2013-10-19 04:00:00,
2013-10-19 00:06:00,48.0,39.4,29.87,SSE,167,0.0,0.0,72,0.00,,,0.00,0,Wunderground v.1.15,2013-10-19 04:06:00,
2013-10-19 00:10:00,48.0,39.4,29.87,SSE,167,0.0,0.0,72,0.00,,,0.00,0,Wunderground v.1.15,2013-10-19 04:10:00,
2013-10-19 00:15:00,48.0,39.0,29.85,SSE,167,0.0,0.0,71,0.00,,,0.00,0,Wunderground v.1.15,2013-10-19 04:15:00,
2013-10-19 00:20:00,48.2,39.2,29.85,SSE,167,0.0,0.0,71,0.00,,,0.00,0,Wunderground v.1.15,2013-10-19 04:20:00,
2013-10-19 00:25:00,48.0,39.0,29.85,SSE,167,0.0,0.0,71,0.00,,,0.00,0,Wunderground v.1.15,2013-10-19 04:25:00,
2013-10-19 00:30:00,47.9,38.6,29.87,SSE,167,0.0,0.0,70,0.00,,,0.00,0,Wunderground v.1.15,2013-10-19 04:30:00,
2013-10-19 00:35:00,47.9,38.9,29.87,SSE,167,0.0,0.0,71,0.00,,,0.00,0,Wunderground v.1.15,2013-10-19 04:35:00,
2013-10-19 00:40:00,47.9,39.7,29.87,SSE,167,0.0,0.0,73,0.00,,,0.00,0,Wunderground v.1.15,2013-10-19 04:40:00,
2013-10-19 00:45:00,47.7,39.8,29.87,SSE,167,0.0,0.0,74,0.00,,,0.00,0,Wunderground v.1.15,2013-10-19 04:45:00,
2013-10-19 00:50:00,47.6,39.7,29.87,SSE,167,0.0,0.0,74,0.00,,,0.00,0,Wunderground v.1.15,2013-10-19 04:50:00,
2013-10-19 00:55:00,47.6,40.1,29.87,SSE,167,0.0,0.0,75,0.00,,,0.00,0,Wunderground v.1.15,2013-10-19 04:55:00,
2013-10-19 01:00:00,47.6,40.1,29.87,SSE,167,0.0,0.0,75,0.00,,,0.00,0,Wunderground v.1.15,2013-10-19 05:00:00,
2013-10-19 01:06:00,47.4,39.5,29.87,SSE,167,0.0,0.0,74,0.00,,,0.00,0,Wunderground v.1.15,2013-10-19 05:06:00,
2013-10-19 01:15:00,47.3,39.1,29.86,SSE,167,0.0,0.0,73,0.00,,,0.00,0,Wunderground v.1.15,2013-10-19 05:15:00,
2013-10-19 01:25:00,47.0,38.8,29.86,SSE,167,0.0,0.0,73,0.00,,,0.00,0,Wunderground v.1.15,2013-10-19 05:25:00,
2013-10-19 01:30:00,47.0,39.1,29.86,SSE,167,0.0,0.0,74,0.00,,,0.00,0,Wunderground v.1.15,2013-10-19 05:30:00,
2013-10-19 01:35:00,47.1,38.9,29.86,SSE,167,0.0,0.0,73,0.00,,,0.00,0,Wunderground v.1.15,2013-10-19 05:35:00,
2013-10-19 01:40:00,47.1,39.2,29.86,SSE,167,0.0,0.0,74,0.00,,,0.00,0,Wunderground v.1.15,2013-10-19 05:40:00,
2013-10-19 01:45:00,47.0,39.5,29.87,SSE,167,0.0,0.0,75,0.00,,,0.00,0,Wunderground v.1.15,2013-10-19 05:45:00,
2013-10-19 01:50:00,46.8,39.6,29.87,SSE,167,0.0,0.0,76,0.00,,,0.00,0,Wunderground v.1.15,2013-10-19 05:50:00,
2013-10-19 02:00:00,46.5,39.7,29.87,SSE,167,0.0,0.0,77,0.00,,,0.00,0,Wunderground v.1.15,2013-10-19 06:00:00,
2013-10-19 02:05:00,46.2,39.4,29.87,SSE,167,0.0,0.0,77,0.00,,,0.00,0,Wunderground v.1.15,2013-10-19 06:05:00,
2013-10-19 02:15:00,46.0,39.2,29.87,SSE,167,0.0,0.0,77,0.00,,,0.00,0,Wunderground v.1.15,2013-10-19 06:15:00,
2013-10-19 02:20:00,46.0,39.2,29.87,SSE,167,0.0,0.0,77,0.00,,,0.00,0,Wunderground v.1.15,2013-10-19 06:20:00,
2013-10-19 02:30:00,45.7,39.2,29.87,SSE,167,0.0,0.0,78,0.00,,,0.00,0,Wunderground v.1.15,2013-10-19 06:30:00,
2013-10-19 02:35:00,45.4,38.6,29.87,SSE,167,0.0,0.0,77,0.00,,,0.00,0,Wunderground v.1.15,2013-10-19 06:35:00,
2013-10-19 02:45:00,45.2,38.4,29.87,SSE,167,0.0,0.0,77,0.00,,,0.00,0,Wunderground v.1.15,2013-10-19 06:45:00,
2013-10-19 02:50:00,45.1,38.3,29.87,SSE,167,0.0,0.0,77,0.00,,,0.00,0,Wunderground v.1.15,2013-10-19 06:50:00,
2013-10-19 02:55:00,45.2,38.4,29.87,SSE,167,0.0,0.0,77,0.00,,,0.00,0,Wunderground v.1.15,2013-10-19 06:55:00,
2013-10-19 03:00:00,45.1,38.0,29.87,SSE,167,0.0,0.0,76,0.00,,,0.00,0,Wunderground v.1.15,2013-10-19 07:00:00,
2013-10-19 03:06:00,45.1,38.3,29.87,SSE,167,0.0,0.0,77,0.00,,,0.00,0,Wunderground v.1.15,2013-10-19 07:06:00,
2013-10-19 03:15:00,45.1,38.3,29.87,SSE,167,0.0,0.0,77,0.00,,,0.00,0,Wunderground v.1.15,2013-10-19 07:15:00,
2013-10-19 03:20:00,45.1,38.3,29.87,SSE,167,0.0,0.0,77,0.00,,,0.00,0,Wunderground v.1.15,2013-10-19 07:20:00,
2013-10-19 03:25:00,44.9,38.1,29.87,SSE,167,0.0,0.0,77,0.00,,,0.00,0,Wunderground v.1.15,2013-10-19 07:25:00,
2013-10-19 03:30:00,44.9,38.1,29.87,SSE,167,0.0,0.0,77,0.00,,,0.00,0,Wunderground v.1.15,2013-10-19 07:30:00,
2013-10-19 03:35:00,44.9,38.1,29.87,SSE,167,0.0,0.0,77,0.00,,,0.00,0,Wunderground v.1.15,2013-10-19 07:35:00,
2013-10-19 03:40:00,44.8,38.0,29.87,SSE,167,0.0,0.0,77,0.00,,,0.00,0,Wunderground v.1.15,2013-10-19 07:40:00,
2013-10-19 03:50:00,44.6,38.5,29.86,SSE,167,0.0,0.0,79,0.00,,,0.00,0,Wunderground v.1.15,2013-10-19 07:50:00,
2013-10-19 03:55:00,44.5,38.4,29.86,SSE,167,0.0,0.0,79,0.00,,,0.00,0,Wunderground v.1.15,2013-10-19 07:55:00,
2013-10-19 04:00:00,44.3,38.2,29.86,SSE,167,0.0,0.0,79,0.00,,,0.00,0,Wunderground v.1.15,2013-10-19 08:00:00,
2013-10-19 04:06:00,44.2,38.4,29.86,SSE,167,0.0,0.0,80,0.00,,,0.00,0,Wunderground v.1.15,2013-10-19 08:06:00,
2013-10-19 04:15:00,44.1,38.3,29.87,SSE,167,0.0,0.0,80,0.00,,,0.00,0,Wunderground v.1.15,2013-10-19 08:15:00,
2013-10-19 04:20:00,43.9,38.1,29.87,SSE,167,0.0,0.0,80,0.00,,,0.00,0,Wunderground v.1.15,2013-10-19 08:20:00,
2013-10-19 04:25:00,43.9,38.4,29.87,SSE,167,0.0,0.0,81,0.00,,,0.00,0,Wunderground v.1.15,2013-10-19 08:25:00,
2013-10-19 04:30:00,43.9,38.8,29.87,SSE,167,0.0,0.0,82,0.00,,,0.00,0,Wunderground v.1.15,2013-10-19 08:30:00,
2013-10-19 04:35:00,43.8,38.7,29.87,SSE,167,0.0,0.0,82,0.00,,,0.00,0,Wunderground v.1.15,2013-10-19 08:35:00,
2013-10-19 04:40:00,43.6,38.8,29.87,SSE,167,0.0,0.0,83,0.00,,,0.00,0,Wunderground v.1.15,2013-10-19 08:40:00,
2013-10-19 04:45:00,43.6,38.8,29.87,SSE,167,0.0,1.0,83,0.00,,,0.00,0,Wunderground v.1.15,2013-10-19 08:45:00,
2013-10-19 04:50:00,43.5,39.0,29.87,SSE,167,0.0,0.0,84,0.00,,,0.00,0,Wunderground v.1.15,2013-10-19 08:50:00,
2013-10-19 05:00:00,43.3,38.8,29.87,SSE,167,0.0,0.0,84,0.00,,,0.00,0,Wunderground v.1.15,2013-10-19 09:00:00,
2013-10-19 05:06:00,43.3,39.1,29.87,SSE,167,0.0,0.0,85,0.00,,,0.00,0,Wunderground v.1.15,2013-10-19 09:06:00,
2013-10-19 05:15:00,43.1,38.9,29.88,SSE,167,0.0,0.0,85,0.00,,,0.00,0,Wunderground v.1.15,2013-10-19 09:15:00,
2013-10-19 05:20:00,43.1,38.9,29.88,SSE,167,0.0,0.0,85,0.00,,,0.00,0,Wunderground v.1.15,2013-10-19 09:20:00,
2013-10-19 05:25:00,42.9,38.7,29.88,SSE,167,0.0,0.0,85,0.00,,,0.00,0,Wunderground v.1.15,2013-10-19 09:25:00,
2013-10-19 05:30:00,42.9,38.7,29.88,SSE,167,0.0,0.0,85,0.00,,,0.00,0,Wunderground v.1.15,2013-10-19 09:30:00,
2013-10-19 05:35:00,42.9,38.7,29.88,SSE,167,0.0,0.0,85,0.00,,,0.00,0,Wunderground v.1.15,2013-10-19 09:35:00,
2013-10-19 05:40:00,42.9,38.7,29.88,SSE,167,0.0,0.0,85,0.00,,,0.00,0,Wunderground v.1.15,2013-10-19 09:40:00,
2013-10-19 05:45:00,42.9,39.0,29.88,SSE,167,0.0,0.0,86,0.00,,,0.00,0,Wunderground v.1.15,2013-10-19 09:45:00,
2013-10-19 05:50:00,42.8,38.6,29.88,SSE,167,0.0,0.0,85,0.00,,,0.00,0,Wunderground v.1.15,2013-10-19 09:50:00,
2013-10-19 05:55:00,42.8,38.6,29.88,South,176,0.0,0.0,85,0.00,,,0.00,0,Wunderground v.1.15,2013-10-19 09:55:00,
2013-10-19 06:00:00,42.6,38.4,29.88,South,176,0.0,0.0,85,0.00,,,0.00,0,Wunderground v.1.15,2013-10-19 10:00:00,
2013-10-19 06:06:00,42.6,38.4,29.88,South,176,1.0,1.0,85,0.00,,,0.00,0,Wunderground v.1.15,2013-10-19 10:06:00,
2013-10-19 06:15:00,42.6,38.7,29.88,South,176,0.0,1.0,86,0.00,,,0.00,0,Wunderground v.1.15,2013-10-19 10:15:00,
2013-10-19 06:20:00,42.6,38.7,29.88,South,176,0.0,0.0,86,0.00,,,0.00,0,Wunderground v.1.15,2013-10-19 10:20:00,
2013-10-19 06:25:00,42.8,38.9,29.88,South,176,0.0,0.0,86,0.00,,,0.00,0,Wunderground v.1.15,2013-10-19 10:25:00,
2013-10-19 06:30:00,42.9,39.0,29.88,South,176,0.0,0.0,86,0.00,,,0.00,0,Wunderground v.1.15,2013-10-19 10:30:00,
2013-10-19 06:35:00,42.9,39.0,29.88,South,176,0.0,0.0,86,0.00,,,0.00,0,Wunderground v.1.15,2013-10-19 10:35:00,
2013-10-19 06:40:00,42.8,38.9,29.88,South,176,0.0,0.0,86,0.00,,,0.00,0,Wunderground v.1.15,2013-10-19 10:40:00,
2013-10-19 06:45:00,42.8,38.9,29.88,South,176,0.0,0.0,86,0.00,,,0.00,0,Wunderground v.1.15,2013-10-19 10:45:00,
2013-10-19 06:50:00,42.9,39.0,29.88,South,176,0.0,0.0,86,0.00,,,0.00,0,Wunderground v.1.15,2013-10-19 10:50:00,
2013-10-19 06:55:00,42.9,39.0,29.88,South,176,0.0,0.0,86,0.00,,,0.00,0,Wunderground v.1.15,2013-10-19 10:55:00,
2013-10-19 07:00:00,42.9,39.0,29.87,South,176,0.0,0.0,86,0.00,,,0.00,0,Wunderground v.1.15,2013-10-19 11:00:00,
2013-10-19 07:10:00,42.9,39.0,29.87,South,176,0.0,0.0,86,0.00,,,0.00,0,Wunderground v.1.15,2013-10-19 11:10:00,
2013-10-19 07:15:00,42.9,39.0,29.87,South,176,0.0,0.0,86,0.00,,,0.00,5,Wunderground v.1.15,2013-10-19 11:15:00,
2013-10-19 07:25:00,43.1,39.2,29.87,South,176,0.0,0.0,86,0.00,,,0.00,11,Wunderground v.1.15,2013-10-19 11:25:00,
2013-10-19 07:30:00,43.2,39.3,29.86,South,176,0.0,0.0,86,0.00,,,0.00,21,Wunderground v.1.15,2013-10-19 11:30:00,
2013-10-19 07:35:00,43.2,39.3,29.86,South,176,0.0,0.0,86,0.00,,,0.00,21,Wunderground v.1.15,2013-10-19 11:35:00,
2013-10-19 07:40:00,43.3,39.4,29.86,South,176,0.0,0.0,86,0.00,,,0.00,26,Wunderground v.1.15,2013-10-19 11:40:00,
2013-10-19 07:45:00,43.3,39.7,29.86,South,176,0.0,0.0,87,0.00,,,0.00,26,Wunderground v.1.15,2013-10-19 11:45:00,
2013-10-19 07:50:00,43.3,39.7,29.86,South,176,0.0,0.0,87,0.00,,,0.00,30,Wunderground v.1.15,2013-10-19 11:50:00,
2013-10-19 07:55:00,43.5,39.9,29.86,South,176,0.0,0.0,87,0.00,,,0.00,32,Wunderground v.1.15,2013-10-19 11:55:00,
2013-10-19 08:00:00,43.6,40.0,29.86,South,176,0.0,0.0,87,0.00,,,0.00,37,Wunderground v.1.15,2013-10-19 12:00:00,
2013-10-19 08:06:00,43.8,40.2,29.86,South,176,0.0,0.0,87,0.00,,,0.00,47,Wunderground v.1.15,2013-10-19 12:06:00,
2013-10-19 08:15:00,44.1,40.5,29.87,South,176,0.0,0.0,87,0.00,,,0.00,47,Wunderground v.1.15,2013-10-19 12:15:00,
2013-10-19 08:20:00,44.3,40.7,29.87,South,176,0.0,0.0,87,0.00,,,0.00,56,Wunderground v.1.15,2013-10-19 12:20:00,
2013-10-19 08:25:00,44.5,41.2,29.87,South,176,0.0,0.0,88,0.00,,,0.00,54,Wunderground v.1.15,2013-10-19 12:25:00,
2013-10-19 08:35:00,45.1,41.8,29.87,South,176,0.0,0.0,88,0.00,,,0.00,37,Wunderground v.1.15,2013-10-19 12:35:00,
2013-10-19 09:40:00,49.8,44.5,29.86,SE,136,0.0,0.0,82,0.00,,,0.00,125,Wunderground v.1.15,2013-10-19 13:40:00,
2013-10-19 09:45:00,50.5,44.6,29.86,SW,221,0.0,1.0,80,0.00,,,0.00,179,Wunderground v.1.15,2013-10-19 13:45:00,
2013-10-19 09:50:00,51.3,44.7,29.86,South,172,0.0,0.0,78,0.00,,,0.00,225,Wunderground v.1.15,2013-10-19 13:50:00,
2013-10-19 09:55:00,52.0,43.6,29.86,ESE,112,1.0,1.0,73,0.00,,,0.00,232,Wunderground v.1.15,2013-10-19 13:55:00,
2013-10-19 10:00:00,52.8,43.7,29.86,ESE,122,1.0,1.0,71,0.00,,,0.00,316,Wunderground v.1.15,2013-10-19 14:00:00,
2013-10-19 10:06:00,53.6,43.3,29.86,South,176,1.0,1.0,68,0.00,,,0.00,283,Wunderground v.1.15,2013-10-19 14:06:00,
2013-10-19 10:15:00,55.0,43.4,29.85,ESE,117,0.0,1.0,65,0.00,,,0.00,459,Wunderground v.1.15,2013-10-19 14:15:00,
2013-10-19 10:20:00,55.7,43.7,29.85,ENE,70,0.0,1.0,64,0.00,,,0.00,439,Wunderground v.1.15,2013-10-19 14:20:00,
2013-10-19 10:30:00,56.7,43.4,29.85,NNE,20,0.0,3.0,61,0.00,,,0.00,427,Wunderground v.1.15,2013-10-19 14:30:00,
2013-10-19 10:35:00,57.2,43.9,29.85,ESE,113,1.0,3.0,61,0.00,,,0.00,425,Wunderground v.1.15,2013-10-19 14:35:00,
2013-10-19 10:40:00,57.8,43.6,29.85,SE,145,1.0,1.0,59,0.00,,,0.00,501,Wunderground v.1.15,2013-10-19 14:40:00,
2013-10-19 10:45:00,58.4,44.1,29.85,SE,144,0.0,1.0,59,0.00,,,0.00,531,Wunderground v.1.15,2013-10-19 14:45:00,
2013-10-19 10:50:00,59.0,42.8,29.85,SSE,156,0.0,0.0,55,0.00,,,0.00,540,Wunderground v.1.15,2013-10-19 14:50:00,
2013-10-19 10:55:00,59.5,42.8,29.85,ESE,103,0.0,0.0,54,0.00,,,0.00,503,Wunderground v.1.15,2013-10-19 14:55:00,
2013-10-19 11:00:00,60.1,43.9,29.85,SSE,152,1.0,1.0,55,0.00,,,0.00,591,Wunderground v.1.15,2013-10-19 15:00:00,
2013-10-19 11:06:00,60.5,44.2,29.85,ENE,66,0.0,1.0,55,0.00,,,0.00,589,Wunderground v.1.15,2013-10-19 15:06:00,
2013-10-19 11:15:00,61.3,44.0,29.85,ESE,109,0.0,1.0,53,0.00,,,0.00,378,Wunderground v.1.15,2013-10-19 15:15:00,
2013-10-19 11:25:00,60.9,44.1,29.85,ESE,115,1.0,4.0,54,0.00,,,0.00,469,Wunderground v.1.15,2013-10-19 15:25:00,
2013-10-19 11:30:00,61.2,44.9,29.85,SSW,205,0.0,0.0,55,0.00,,,0.00,666,Wunderground v.1.15,2013-10-19 15:30:00,
2013-10-19 11:40:00,60.7,43.5,29.85,NE,46,1.0,1.0,53,0.00,,,0.00,227,Wunderground v.1.15,2013-10-19 15:40:00,
2013-10-19 11:45:00,60.1,42.9,29.84,ENE,68,1.0,1.0,53,0.00,,,0.00,229,Wunderground v.1.15,2013-10-19 15:45:00,
2013-10-19 11:50:00,59.9,43.7,29.84,ENE,68,0.0,0.0,55,0.00,,,0.00,232,Wunderground v.1.15,2013-10-19 15:50:00,
2013-10-19 11:55:00,59.8,43.1,29.84,East,89,0.0,0.0,54,0.00,,,0.00,227,Wunderground v.1.15,2013-10-19 15:55:00,
2013-10-19 12:00:00,59.6,42.9,29.84,SE,139,0.0,0.0,54,0.00,,,0.00,214,Wunderground v.1.15,2013-10-19 16:00:00,
2013-10-19 12:06:00,59.5,43.3,29.84,ESE,108,0.0,0.0,55,0.00,,,0.00,262,Wunderground v.1.15,2013-10-19 16:06:00,
2013-10-19 12:15:00,59.5,42.8,29.83,SE,136,1.0,2.0,54,0.00,,,0.00,471,Wunderground v.1.15,2013-10-19 16:15:00,
2013-10-19 12:25:00,61.2,44.9,29.83,ESE,102,1.0,1.0,55,0.00,,,0.00,255,Wunderground v.1.15,2013-10-19 16:25:00,
2013-10-19 12:30:00,61.3,44.0,29.82,East,91,0.0,0.0,53,0.00,,,0.00,237,Wunderground v.1.15,2013-10-19 16:30:00,
2013-10-19 12:35:00,61.0,43.2,29.82,ESE,108,0.0,0.0,52,0.00,,,0.00,229,Wunderground v.1.15,2013-10-19 16:35:00,
2013-10-19 12:40:00,60.7,44.9,29.82,North,0,0.0,0.0,56,0.00,,,0.00,239,Wunderground v.1.15,2013-10-19 16:40:00,
2013-10-19 12:45:00,60.7,43.9,29.81,South,181,0.0,0.0,54,0.00,,,0.00,371,Wunderground v.1.15,2013-10-19 16:45:00,
2013-10-19 12:50:00,61.3,43.0,29.81,ENE,57,0.0,0.0,51,0.00,,,0.00,353,Wunderground v.1.15,2013-10-19 16:50:00,
2013-10-19 12:55:00,61.8,43.5,29.81,East,90,0.0,0.0,51,0.00,,,0.00,287,Wunderground v.1.15,2013-10-19 16:55:00,
2013-10-19 13:00:00,62.1,44.3,29.81,ENE,63,0.0,0.0,52,0.00,,,0.00,274,Wunderground v.1.15,2013-10-19 17:00:00,
2013-10-19 13:06:00,62.1,43.7,29.81,ENE,70,0.0,3.0,51,0.00,,,0.00,262,Wunderground v.1.15,2013-10-19 17:06:00,
2013-10-19 13:15:00,61.2,43.9,29.81,ENE,70,0.0,0.0,53,0.00,,,0.00,223,Wunderground v.1.15,2013-10-19 17:15:00,
2013-10-19 13:20:00,61.0,44.2,29.81,East,84,0.0,0.0,54,0.00,,,0.00,227,Wunderground v.1.15,2013-10-19 17:20:00,
2013-10-19 13:25:00,60.7,43.9,29.81,SSE,150,0.0,0.0,54,0.00,,,0.00,197,Wunderground v.1.15,2013-10-19 17:25:00,
2013-10-19 13:30:00,60.7,43.5,29.79,SSE,150,0.0,0.0,53,0.00,,,0.00,193,Wunderground v.1.15,2013-10-19 17:30:00,
2013-10-19 13:35:00,60.9,43.1,29.79,SE,133,0.0,0.0,52,0.00,,,0.00,236,Wunderground v.1.15,2013-10-19 17:35:00,
2013-10-19 13:40:00,60.9,43.1,29.79,SSW,197,0.0,0.0,52,0.00,,,0.00,232,Wunderground v.1.15,2013-10-19 17:40:00,
2013-10-19 13:45:00,61.2,43.4,29.78,SE,126,0.0,3.0,52,0.00,,,0.00,206,Wunderground v.1.15,2013-10-19 17:45:00,
2013-10-19 13:50:00,61.3,43.5,29.78,ESE,121,0.0,0.0,52,0.00,,,0.00,192,Wunderground v.1.15,2013-10-19 17:50:00,
2013-10-19 13:55:00,61.0,43.2,29.78,NNW,342,0.0,0.0,52,0.00,,,0.00,172,Wunderground v.1.15,2013-10-19 17:55:00,
2013-10-19 14:00:00,61.0,43.7,29.78,North,4,0.0,0.0,53,0.00,,,0.00,181,Wunderground v.1.15,2013-10-19 18:00:00,
2013-10-19 14:06:00,61.2,43.4,29.78,North,5,0.0,0.0,52,0.00,,,0.00,230,Wunderground v.1.15,2013-10-19 18:06:00,
2013-10-19 14:15:00,61.5,43.2,29.78,East,84,0.0,0.0,51,0.00,,,0.00,260,Wunderground v.1.15,2013-10-19 18:15:00,
2013-10-19 14:20:00,61.8,43.5,29.78,ESE,103,0.0,0.0,51,0.00,,,0.00,253,Wunderground v.1.15,2013-10-19 18:20:00,
2013-10-19 14:25:00,62.1,43.2,29.78,SE,124,0.0,0.0,50,0.00,,,0.00,294,Wunderground v.1.15,2013-10-19 18:25:00,
2013-10-19 14:30:00,62.4,44.0,29.77,ESE,106,1.0,1.0,51,0.00,,,0.00,257,Wunderground v.1.15,2013-10-19 18:30:00,
2013-10-19 14:35:00,62.7,43.8,29.77,ESE,114,0.0,1.0,50,0.00,,,0.00,283,Wunderground v.1.15,2013-10-19 18:35:00,
2013-10-19 14:45:00,63.2,43.2,29.76,SSE,159,1.0,3.0,48,0.00,,,0.00,243,Wunderground v.1.15,2013-10-19 18:45:00,
2013-10-19 14:50:00,63.4,44.4,29.76,ENE,58,1.0,1.0,50,0.00,,,0.00,206,Wunderground v.1.15,2013-10-19 18:50:00,
2013-10-19 14:55:00,63.4,43.4,29.76,SE,124,1.0,1.0,48,0.00,,,0.00,179,Wunderground v.1.15,2013-10-19 18:55:00,
2013-10-19 15:00:00,63.1,43.6,29.77,ESE,122,0.0,3.0,49,0.00,,,0.00,162,Wunderground v.1.15,2013-10-19 19:00:00,
2013-10-19 15:06:00,62.7,43.3,29.77,SE,132,0.0,3.0,49,0.00,,,0.00,134,Wunderground v.1.15,2013-10-19 19:06:00,
2013-10-19 15:15:00,62.3,44.4,29.76,ENE,59,1.0,1.0,52,0.00,,,0.00,149,Wunderground v.1.15,2013-10-19 19:15:00,
2013-10-19 15:25:00,62.3,45.9,29.76,ENE,78,0.0,0.0,55,0.00,,,0.00,109,Wunderground v.1.15,2013-10-19 19:25:00,
2013-10-19 15:30:00,62.1,44.3,29.75,SE,129,0.0,2.0,52,0.00,,,0.00,104,Wunderground v.1.15,2013-10-19 19:30:00,
2013-10-19 15:35:00,62.0,44.2,29.75,SE,127,1.0,2.0,52,0.00,,,0.00,98,Wunderground v.1.15,2013-10-19 19:35:00,
2013-10-19 15:40:00,61.8,43.0,29.75,NNE,30,1.0,1.0,50,0.00,,,0.00,93,Wunderground v.1.15,2013-10-19 19:40:00,
2013-10-19 15:45:00,61.6,43.3,29.75,SW,218,0.0,2.0,51,0.00,,,0.00,91,Wunderground v.1.15,2013-10-19 19:45:00,
2013-10-19 15:50:00,61.3,43.5,29.75,SSE,162,0.0,0.0,52,0.00,,,0.00,70,Wunderground v.1.15,2013-10-19 19:50:00,
2013-10-19 15:55:00,61.2,43.4,29.75,SSE,162,0.0,0.0,52,0.00,,,0.00,84,Wunderground v.1.15,2013-10-19 19:55:00,
2013-10-19 16:00:00,61.0,43.7,29.74,South,191,0.0,0.0,53,0.00,,,0.00,56,Wunderground v.1.15,2013-10-19 20:00:00,
2013-10-19 16:06:00,60.9,43.1,29.74,SW,220,0.0,0.0,52,0.00,,,0.00,54,Wunderground v.1.15,2013-10-19 20:06:00,
2013-10-19 16:15:00,60.2,43.5,29.73,SW,220,0.0,0.0,54,0.00,,,0.00,47,Wunderground v.1.15,2013-10-19 20:15:00,
2013-10-19 16:20:00,60.1,43.4,29.73,SW,220,0.0,0.0,54,0.00,,,0.00,47,Wunderground v.1.15,2013-10-19 20:20:00,
2013-10-19 16:25:00,59.9,42.7,29.73,SW,220,0.0,0.0,53,0.00,,,0.00,40,Wunderground v.1.15,2013-10-19 20:25:00,
2013-10-19 16:30:00,59.6,42.9,29.73,SW,219,0.0,0.0,54,0.00,,,0.00,35,Wunderground v.1.15,2013-10-19 20:30:00,
2013-10-19 16:35:00,59.5,42.8,29.73,SW,219,0.0,0.0,54,0.00,,,0.00,28,Wunderground v.1.15,2013-10-19 20:35:00,
2013-10-19 16:40:00,59.5,42.8,29.73,SW,219,0.0,0.0,54,0.00,,,0.00,28,Wunderground v.1.15,2013-10-19 20:40:00,
2013-10-19 16:45:00,59.3,43.1,29.73,SW,219,0.0,0.0,55,0.00,,,0.00,30,Wunderground v.1.15,2013-10-19 20:45:00,
2013-10-19 16:50:00,59.2,43.0,29.73,SW,219,0.0,0.0,55,0.00,,,0.00,28,Wunderground v.1.15,2013-10-19 20:50:00,
2013-10-19 16:55:00,59.0,43.3,29.73,SW,219,0.0,0.0,56,0.00,,,0.00,26,Wunderground v.1.15,2013-10-19 20:55:00,
2013-10-19 17:00:00,58.9,43.2,29.72,SW,219,0.0,0.0,56,0.00,,,0.00,35,Wunderground v.1.15,2013-10-19 21:00:00,
2013-10-19 17:06:00,58.7,43.0,29.72,SW,219,0.0,0.0,56,0.00,,,0.00,32,Wunderground v.1.15,2013-10-19 21:06:00,
2013-10-19 17:15:00,58.6,44.8,29.71,SW,219,0.0,0.0,60,0.00,,,0.00,28,Wunderground v.1.15,2013-10-19 21:15:00,
2013-10-19 17:20:00,58.4,45.0,29.71,SW,219,0.0,0.0,61,0.00,,,0.00,32,Wunderground v.1.15,2013-10-19 21:20:00,
2013-10-19 17:25:00,58.3,44.5,29.71,SW,219,0.0,0.0,60,0.00,,,0.00,26,Wunderground v.1.15,2013-10-19 21:25:00,
2013-10-19 17:30:00,58.1,44.3,29.70,SW,219,0.0,0.0,60,0.00,,,0.00,19,Wunderground v.1.15,2013-10-19 21:30:00,
2013-10-19 17:40:00,58.0,44.2,29.70,SW,219,0.0,0.0,60,0.00,,,0.00,12,Wunderground v.1.15,2013-10-19 21:40:00,
2013-10-19 17:45:00,57.8,44.0,29.70,SW,219,0.0,0.0,60,0.00,,,0.00,14,Wunderground v.1.15,2013-10-19 21:45:00,
2013-10-19 17:50:00,57.5,45.0,29.70,SW,219,0.0,0.0,63,0.00,,,0.00,12,Wunderground v.1.15,2013-10-19 21:50:00,
2013-10-19 17:55:00,57.3,44.4,29.70,SW,219,0.0,0.0,62,0.00,,,0.00,5,Wunderground v.1.15,2013-10-19 21:55:00,
2013-10-19 18:00:00,57.0,44.9,29.70,SW,219,0.0,1.0,64,0.00,,,0.00,0,Wunderground v.1.15,2013-10-19 22:00:00,
2013-10-19 18:10:00,56.3,44.7,29.70,SW,219,0.0,0.0,65,0.00,,,0.00,0,Wunderground v.1.15,2013-10-19 22:10:00,
2013-10-19 18:15:00,56.0,44.0,29.70,SSW,209,0.0,0.0,64,0.00,,,0.00,0,Wunderground v.1.15,2013-10-19 22:15:00,
2013-10-19 18:20:00,56.2,43.8,29.70,SSW,209,0.0,2.0,63,0.00,,,0.00,0,Wunderground v.1.15,2013-10-19 22:20:00,
2013-10-19 18:25:00,56.3,43.0,29.70,SSW,209,0.0,2.0,61,0.00,,,0.00,0,Wunderground v.1.15,2013-10-19 22:25:00,
2013-10-19 18:30:00,56.5,42.8,29.69,SSW,209,0.0,0.0,60,0.00,,,0.00,0,Wunderground v.1.15,2013-10-19 22:30:00,
2013-10-19 18:35:00,56.6,42.9,29.69,SSW,209,0.0,0.0,60,0.00,,,0.00,0,Wunderground v.1.15,2013-10-19 22:35:00,
2013-10-19 18:40:00,56.7,42.5,29.69,SSW,209,0.0,0.0,59,0.00,,,0.00,0,Wunderground v.1.15,2013-10-19 22:40:00,
2013-10-19 18:50:00,57.2,42.1,29.68,SSW,208,0.0,0.0,57,0.00,,,0.00,0,Wunderground v.1.15,2013-10-19 22:50:00,
2013-10-19 18:55:00,57.2,42.1,29.68,SSW,208,0.0,0.0,57,0.00,,,0.00,0,Wunderground v.1.15,2013-10-19 22:55:00,
2013-10-19 19:05:00,57.2,42.1,29.68,SSW,208,0.0,0.0,57,0.00,,,0.00,0,Wunderground v.1.15,2013-10-19 23:05:00,
2013-10-19 19:15:00,57.0,41.9,29.67,SSW,208,0.0,0.0,57,0.00,,,0.00,0,Wunderground v.1.15,2013-10-19 23:15:00,
2013-10-19 19:20:00,56.7,42.1,29.67,SSW,208,0.0,0.0,58,0.00,,,0.00,0,Wunderground v.1.15,2013-10-19 23:20:00,
2013-10-19 19:25:00,56.5,41.4,29.67,SSW,208,0.0,0.0,57,0.00,,,0.00,0,Wunderground v.1.15,2013-10-19 23:25:00,
2013-10-19 19:30:00,56.2,41.6,29.67,SSW,208,0.0,0.0,58,0.00,,,0.00,0,Wunderground v.1.15,2013-10-19 23:30:00,
2013-10-19 19:35:00,56.0,41.9,29.67,SSW,207,0.0,0.0,59,0.00,,,0.00,0,Wunderground v.1.15,2013-10-19 23:35:00,
2013-10-19 19:40:00,55.7,42.0,29.67,SSW,207,0.0,0.0,60,0.00,,,0.00,0,Wunderground v.1.15,2013-10-19 23:40:00,
2013-10-19 19:45:00,55.6,41.5,29.67,SE,124,0.0,0.0,59,0.00,,,0.00,0,Wunderground v.1.15,2013-10-19 23:45:00,
2013-10-19 19:55:00,55.6,41.9,29.67,SE,124,0.0,0.0,60,0.00,,,0.00,0,Wunderground v.1.15,2013-10-19 23:55:00,
2013-10-19 20:05:00,55.7,42.0,29.67,SE,124,0.0,0.0,60,0.00,,,0.00,0,Wunderground v.1.15,2013-10-20 00:05:00,
2013-10-19 20:15:00,55.6,42.4,29.66,SE,124,0.0,0.0,61,0.00,,,0.00,0,Wunderground v.1.15,2013-10-20 00:15:00,
2013-10-19 20:20:00,55.4,41.3,29.66,SE,124,0.0,0.0,59,0.00,,,0.00,0,Wunderground v.1.15,2013-10-20 00:20:00,
2013-10-19 20:25:00,55.4,42.2,29.66,WNW,291,0.0,2.0,61,0.00,,,0.00,0,Wunderground v.1.15,2013-10-20 00:25:00,
2013-10-19 20:30:00,55.3,42.1,29.66,East,92,0.0,0.0,61,0.00,,,0.00,0,Wunderground v.1.15,2013-10-20 00:30:00,
2013-10-19 20:35:00,55.3,41.6,29.66,SSE,160,1.0,1.0,60,0.00,,,0.00,0,Wunderground v.1.15,2013-10-20 00:35:00,
2013-10-19 20:40:00,55.3,41.2,29.66,NE,40,0.0,0.0,59,0.00,,,0.00,0,Wunderground v.1.15,2013-10-20 00:40:00,
2013-10-19 20:45:00,55.3,41.6,29.65,SSE,152,0.0,0.0,60,0.00,,,0.00,0,Wunderground v.1.15,2013-10-20 00:45:00,
2013-10-19 20:50:00,55.4,41.3,29.65,East,91,0.0,0.0,59,0.00,,,0.00,0,Wunderground v.1.15,2013-10-20 00:50:00,
2013-10-19 21:00:00,55.6,41.0,29.66,ESE,105,1.0,1.0,58,0.00,,,0.00,0,Wunderground v.1.15,2013-10-20 01:00:00,
2013-10-19 21:05:00,55.7,41.1,29.66,ESE,108,1.0,1.0,58,0.00,,,0.00,0,Wunderground v.1.15,2013-10-20 01:05:00,
2013-10-19 21:15:00,55.7,41.6,29.66,East,81,1.0,2.0,59,0.00,,,0.00,0,Wunderground v.1.15,2013-10-20 01:15:00,
2013-10-19 21:20:00,55.7,42.0,29.66,SE,127,1.0,1.0,60,0.00,,,0.00,0,Wunderground v.1.15,2013-10-20 01:20:00,
2013-10-19 21:25:00,55.6,42.8,29.66,ESE,119,1.0,2.0,62,0.00,,,0.00,0,Wunderground v.1.15,2013-10-20 01:25:00,
2013-10-19 21:30:00,55.1,43.1,29.67,ENE,58,0.0,1.0,64,0.00,,,0.00,0,Wunderground v.1.15,2013-10-20 01:30:00,
2013-10-19 21:35:00,54.8,44.4,29.67,SE,131,1.0,1.0,68,0.00,,,0.00,0,Wunderground v.1.15,2013-10-20 01:35:00,
2013-10-19 21:40:00,54.1,44.5,29.67,NE,49,1.0,1.0,70,0.00,,,0.01,0,Wunderground v.1.15,2013-10-20 01:40:00,
2013-10-19 21:50:00,53.1,45.7,29.67,ESE,103,0.0,0.0,76,0.00,,,0.01,0,Wunderground v.1.15,2013-10-20 01:50:00,
2013-10-19 21:55:00,52.6,45.9,29.67,ESE,103,0.0,0.0,78,0.00,,,0.01,0,Wunderground v.1.15,2013-10-20 01:55:00,
2013-10-19 22:00:00,52.0,46.0,29.67,SSE,158,0.0,0.0,80,0.17,,,0.03,0,Wunderground v.1.15,2013-10-20 02:00:00,
2013-10-19 22:05:00,51.7,46.4,29.67,SSE,158,0.0,0.0,82,0.09,,,0.03,0,Wunderground v.1.15,2013-10-20 02:05:00,
2013-10-19 22:15:00,51.1,46.4,29.65,SSE,158,0.0,0.0,84,0.06,,,0.04,0,Wunderground v.1.15,2013-10-20 02:15:00,
2013-10-19 22:25:00,50.8,46.8,29.65,SSE,158,0.0,0.0,86,0.06,,,0.05,0,Wunderground v.1.15,2013-10-20 02:25:00,
2013-10-19 22:30:00,50.7,46.7,29.65,SSE,158,0.0,0.0,86,0.04,,,0.05,0,Wunderground v.1.15,2013-10-20 02:30:00,
2013-10-19 22:35:00,50.7,46.7,29.65,SSE,158,0.0,0.0,86,0.04,,,0.06,0,Wunderground v.1.15,2013-10-20 02:35:00,
2013-10-19 22:40:00,50.4,46.7,29.65,SSE,152,0.0,0.0,87,0.04,,,0.06,0,Wunderground v.1.15,2013-10-20 02:40:00,
2013-10-19 22:50:00,50.2,46.8,29.64,SSE,152,0.0,0.0,88,0.05,,,0.07,0,Wunderground v.1.15,2013-10-20 02:50:00,
2013-10-19 22:55:00,50.2,46.8,29.64,SSE,152,0.0,0.0,88,0.04,,,0.07,0,Wunderground v.1.15,2013-10-20 02:55:00,
2013-10-19 23:00:00,50.4,47.3,29.63,SSE,152,0.0,0.0,89,0.04,,,0.08,0,Wunderground v.1.15,2013-10-20 03:00:00,
2013-10-19 23:05:00,50.5,47.4,29.63,SSE,152,0.0,0.0,89,0.08,,,0.09,0,Wunderground v.1.15,2013-10-20 03:05:00,
2013-10-19 23:15:00,50.7,47.6,29.62,SSE,152,0.0,0.0,89,0.05,,,0.09,0,Wunderground v.1.15,2013-10-20 03:15:00,
2013-10-19 23:20:00,50.7,47.6,29.62,SSE,152,0.0,0.0,89,0.04,,,0.09,0,Wunderground v.1.15,2013-10-20 03:20:00,
2013-10-19 23:25:00,50.5,47.4,29.62,SSE,152,0.0,0.0,89,0.00,,,0.09,0,Wunderground v.1.15,2013-10-20 03:25:00,
2013-10-19 23:35:00,50.5,47.4,29.61,SSE,153,0.0,0.0,89,0.00,,,0.09,0,Wunderground v.1.15,2013-10-20 03:35:00,
2013-10-19 23:40:00,50.5,47.4,29.61,WSW,241,0.0,0.0,89,0.00,,,0.09,0,Wunderground v.1.15,2013-10-20 03:40:00,
2013-10-19 23:50:00,50.8,47.7,29.60,WSW,241,0.0,1.0,89,0.00,,,0.09,0,Wunderground v.1.15,2013-10-20 03:50:00,
2013-10-19 23:55:00,50.7,47.6,29.60,WSW,241,0.0,1.0,89,0.00,,,0.09,0,Wunderground v.1.15,2013-10-20 03:55:00,